EDW24 LSZH-MMUN

Flight info

Callsign EDW24
Flight time N/A
Altitude 32000
Route DEGES Z1 ETAGO DCT LIRSU L608 DENUT L610 KOPUL Q63 ICTAM M197 ENHAQ DCT GAJIT DCT BAPHU DCT LESLU/M083F320 DCT EPUNA DCT RODEL/M083F340 NATG NICSO/N0471F360 DCT TIGOR Q822 EBKID/N0466F380 Q822 ALLEX DCT FOXBO DCT RIFLE Q167 KALDA Q64 GUILD Q409 ISUZO/N0470F400 Q409 ENEME DCT EVANZ Q109 KNOST M219 NAVVL L465 SHARQ UM463 WALKY UB879 NOSAT NOSAT1B
Aircraft A343/H-SDE2E3FGHIJ4J5M1P2RWXYZ/LB1D1

Departure

Time 2026-05-06 09:31
Airport Zürich Airport (LSZH)

Arrival

Time N/A
Airport Cancún International Airport (MMUN)
Time Latitude Longitude Altitude Speed Heading
2026-05-06 09:15 47.46166 8.55684 1406 ft 0 kts 186°
2026-05-06 09:18 47.46167 8.55684 1406 ft 2 kts 186°
2026-05-06 09:18 47.46191 8.55688 1409 ft 4 kts 187°
2026-05-06 09:18 47.46218 8.55694 1408 ft 3 kts 192°
2026-05-06 09:18 47.46238 8.55704 1410 ft 4 kts 236°
2026-05-06 09:19 47.46242 8.55738 1407 ft 4 kts 281°
2026-05-06 09:19 47.46236 8.55777 1412 ft 4 kts 280°
2026-05-06 09:19 47.46235 8.55786 1410 ft 1 kts 276°
2026-05-06 09:19 47.46236 8.55770 1415 ft 4 kts 276°
2026-05-06 09:20 47.46237 8.55763 1415 ft 0 kts 276°
2026-05-06 09:22 47.46237 8.55761 1415 ft 1 kts 276°
2026-05-06 09:22 47.46240 8.55724 1414 ft 3 kts 276°
2026-05-06 09:23 47.46244 8.55658 1409 ft 10 kts 275°
2026-05-06 09:23 47.46253 8.55531 1411 ft 15 kts 276°
2026-05-06 09:23 47.46265 8.55364 1407 ft 10 kts 276°
2026-05-06 09:23 47.46266 8.55351 1407 ft 0 kts 276°
2026-05-06 09:24 47.46267 8.55340 1408 ft 2 kts 276°
2026-05-06 09:24 47.46270 8.55298 1401 ft 6 kts 276°
2026-05-06 09:24 47.46275 8.55220 1397 ft 9 kts 276°
2026-05-06 09:24 47.46284 8.55103 1403 ft 13 kts 277°
2026-05-06 09:25 47.46296 8.54951 1403 ft 17 kts 276°
2026-05-06 09:25 47.46313 8.54771 1387 ft 18 kts 291°
2026-05-06 09:25 47.46409 8.54672 1386 ft 17 kts 334°
2026-05-06 09:25 47.46513 8.54602 1400 ft 16 kts 335°
2026-05-06 09:26 47.46611 8.54534 1403 ft 16 kts 335°
2026-05-06 09:26 47.46719 8.54460 1386 ft 18 kts 337°
2026-05-06 09:26 47.46842 8.54389 1382 ft 19 kts 336°
2026-05-06 09:26 47.46963 8.54307 1383 ft 19 kts 335°
2026-05-06 09:27 47.47076 8.54228 1384 ft 18 kts 334°
2026-05-06 09:27 47.47186 8.54152 1387 ft 17 kts 335°
2026-05-06 09:27 47.47293 8.54080 1401 ft 17 kts 335°
2026-05-06 09:27 47.47394 8.54010 1403 ft 15 kts 334°
2026-05-06 09:28 47.47485 8.53947 1405 ft 14 kts 335°
2026-05-06 09:28 47.47565 8.53890 1408 ft 12 kts 331°
2026-05-06 09:28 47.47612 8.53801 1409 ft 11 kts 280°
2026-05-06 09:28 47.47593 8.53703 1410 ft 10 kts 247°
2026-05-06 09:29 47.47566 8.53615 1407 ft 9 kts 238°
2026-05-06 09:29 47.47549 8.53612 1412 ft 3 kts 162°
2026-05-06 09:29 47.47527 8.53625 1411 ft 0 kts 158°
2026-05-06 09:29 47.47520 8.53629 1411 ft 2 kts 158°
2026-05-06 09:30 47.47414 8.53700 1407 ft 41 kts 155°
2026-05-06 09:30 47.46990 8.53996 1385 ft 92 kts 155°
2026-05-06 09:30 47.46273 8.54490 1387 ft 134 kts 155°
2026-05-06 09:30 47.45319 8.55146 1413 ft 168 kts 155°
2026-05-06 09:31 47.44228 8.55906 1738 ft 174 kts 155°
2026-05-06 09:31 47.43123 8.56684 2169 ft 179 kts 154°
2026-05-06 09:31 47.42277 8.58017 2521 ft 184 kts 108°
2026-05-06 09:31 47.42336 8.59873 2944 ft 182 kts 61°
2026-05-06 09:32 47.43225 8.61136 3256 ft 183 kts 21°
2026-05-06 09:32 47.44416 8.61879 3575 ft 189 kts 30°
2026-05-06 09:32 47.45292 8.63270 4011 ft 189 kts 62°
2026-05-06 09:32 47.45862 8.65032 4476 ft 187 kts 62°
2026-05-06 09:33 47.46334 8.66854 4690 ft 199 kts 83°
2026-05-06 09:33 47.46440 8.68960 4901 ft 212 kts 89°
2026-05-06 09:33 47.46482 8.71212 5094 ft 227 kts 89°
2026-05-06 09:33 47.46508 8.73619 5275 ft 247 kts 89°
2026-05-06 09:34 47.46540 8.76251 5544 ft 265 kts 89°
2026-05-06 09:34 47.46600 8.79030 5993 ft 273 kts 88°
2026-05-06 09:34 47.46661 8.81861 6719 ft 272 kts 94°
2026-05-06 09:34 47.46407 8.84620 7265 ft 277 kts 102°
2026-05-06 09:35 47.46001 8.87429 7808 ft 282 kts 104°
2026-05-06 09:35 47.45576 8.90270 8389 ft 285 kts 104°
2026-05-06 09:35 47.45160 8.93150 8982 ft 288 kts 104°
2026-05-06 09:35 47.44742 8.96059 9547 ft 291 kts 104°
2026-05-06 09:36 47.44393 8.98995 10010 ft 298 kts 97°
2026-05-06 09:36 47.44528 9.02155 10244 ft 317 kts 78°
2026-05-06 09:36 47.45505 9.05155 10465 ft 335 kts 55°
2026-05-06 09:36 47.47099 9.07777 10709 ft 350 kts 45°
2026-05-06 09:37 47.48991 9.10151 10918 ft 364 kts 39°
2026-05-06 09:37 47.51058 9.12446 11127 ft 377 kts 38°
2026-05-06 09:37 47.53206 9.14762 11372 ft 387 kts 38°
2026-05-06 09:37 47.55391 9.17155 11740 ft 394 kts 38°
2026-05-06 09:38 47.57584 9.19626 12145 ft 399 kts 39°
2026-05-06 09:38 47.59783 9.22167 12585 ft 404 kts 40°
2026-05-06 09:38 47.61997 9.24771 13026 ft 408 kts 40°
2026-05-06 09:38 47.64229 9.27422 13431 ft 413 kts 40°
2026-05-06 09:39 47.66474 9.30103 13942 ft 415 kts 40°
2026-05-06 09:39 47.68731 9.32800 14379 ft 418 kts 40°
2026-05-06 09:39 47.71006 9.35516 14816 ft 421 kts 40°
2026-05-06 09:39 47.73301 9.38259 15320 ft 425 kts 40°
2026-05-06 09:40 47.75611 9.41022 15790 ft 428 kts 40°
2026-05-06 09:40 47.78040 9.43617 16225 ft 432 kts 30°
2026-05-06 09:40 47.83767 9.46288 17105 ft 437 kts
2026-05-06 09:41 47.86797 9.46599 17654 ft 436 kts
2026-05-06 09:41 47.89837 9.46622 18081 ft 439 kts 358°
2026-05-06 09:41 47.92911 9.46521 18426 ft 443 kts 357°
2026-05-06 09:41 47.96000 9.46398 18776 ft 446 kts 357°
2026-05-06 09:42 47.99113 9.46297 19140 ft 449 kts 358°
2026-05-06 09:42 48.02246 9.46230 19496 ft 452 kts 358°
2026-05-06 09:42 48.05400 9.46193 19858 ft 455 kts 358°
2026-05-06 09:42 48.08562 9.46177 20341 ft 454 kts 359°
2026-05-06 09:43 48.11735 9.46170 20701 ft 457 kts 359°
2026-05-06 09:43 48.14928 9.46167 21039 ft 460 kts 359°
2026-05-06 09:43 48.18141 9.46163 21397 ft 463 kts 359°
2026-05-06 09:43 48.21378 9.46161 21741 ft 466 kts 359°
2026-05-06 09:44 48.24581 9.46166 22085 ft 468 kts 359°
2026-05-06 09:44 48.27848 9.46173 22447 ft 470 kts 359°
2026-05-06 09:44 48.31124 9.46181 22839 ft 472 kts 359°
2026-05-06 09:44 48.34416 9.46187 23152 ft 474 kts 359°
2026-05-06 09:45 48.37726 9.46192 23451 ft 477 kts 359°
2026-05-06 09:45 48.41049 9.46195 23696 ft 480 kts 359°
2026-05-06 09:45 48.44401 9.46198 23926 ft 483 kts 359°
2026-05-06 09:45 48.47769 9.46200 24180 ft 485 kts 359°
2026-05-06 09:46 48.51151 9.46202 24431 ft 487 kts 359°
2026-05-06 09:46 48.54546 9.46204 24671 ft 489 kts 359°
2026-05-06 09:46 48.57963 9.46182 24897 ft 492 kts 358°
2026-05-06 09:46 48.61398 9.46140 25156 ft 494 kts 358°
2026-05-06 09:47 48.64880 9.45919 25392 ft 495 kts 352°
2026-05-06 09:47 48.68264 9.44994 25617 ft 494 kts 342°
2026-05-06 09:47 48.71489 9.43243 25884 ft 491 kts 331°
2026-05-06 09:47 48.74438 9.40672 26148 ft 487 kts 320°
2026-05-06 09:48 48.77002 9.37365 26385 ft 483 kts 309°
2026-05-06 09:48 48.79214 9.33551 26593 ft 482 kts 304°
2026-05-06 09:48 48.81282 9.29636 26816 ft 482 kts 303°
2026-05-06 09:48 48.83329 9.25584 27038 ft 483 kts 302°
2026-05-06 09:49 48.85357 9.21508 27282 ft 485 kts 302°
2026-05-06 09:49 48.87395 9.17406 27436 ft 488 kts 302°
2026-05-06 09:49 48.89450 9.13292 27653 ft 490 kts 303°
2026-05-06 09:49 48.91522 9.09164 27872 ft 491 kts 303°
2026-05-06 09:50 48.93605 9.05032 28084 ft 493 kts 303°
2026-05-06 09:50 48.95697 9.00886 28294 ft 494 kts 303°
2026-05-06 09:50 48.97786 8.96748 28701 ft 491 kts 303°
2026-05-06 09:50 48.99859 8.92639 29056 ft 489 kts 302°
2026-05-06 09:51 49.01933 8.88518 29289 ft 490 kts 302°
2026-05-06 09:51 49.04004 8.84391 29550 ft 490 kts 302°
2026-05-06 09:51 49.06073 8.80262 29831 ft 490 kts 303°
2026-05-06 09:51 49.08141 8.76137 30070 ft 489 kts 303°
2026-05-06 09:52 49.10200 8.72019 30327 ft 487 kts 303°
2026-05-06 09:52 49.12249 8.67908 30557 ft 486 kts 303°
2026-05-06 09:52 49.14292 8.63805 30792 ft 485 kts 303°
2026-05-06 09:52 49.16335 8.59693 31006 ft 485 kts 302°
2026-05-06 09:53 49.18368 8.55596 31201 ft 484 kts 302°
2026-05-06 09:53 49.20401 8.51496 31432 ft 483 kts 302°
2026-05-06 09:53 49.22425 8.47407 31639 ft 483 kts 302°
2026-05-06 09:53 49.24451 8.43305 31757 ft 484 kts 302°
2026-05-06 09:54 49.28475 8.35149 31774 ft 477 kts 302°
2026-05-06 09:54 49.32460 8.27046 31790 ft 476 kts 302°
2026-05-06 09:55 49.36436 8.18929 31771 ft 476 kts 302°
2026-05-06 09:55 49.40404 8.10802 31769 ft 476 kts 302°
2026-05-06 09:56 49.44376 8.02646 31780 ft 476 kts 302°
2026-05-06 09:56 49.48343 7.94473 31777 ft 477 kts 302°
2026-05-06 09:57 49.52297 7.86310 31775 ft 475 kts 302°
2026-05-06 09:57 49.56242 7.78137 31773 ft 475 kts 302°
2026-05-06 09:58 49.60152 7.70010 31772 ft 475 kts 301°
2026-05-06 09:58 49.64085 7.61812 31774 ft 475 kts 301°
2026-05-06 09:59 49.68008 7.53611 31762 ft 475 kts 301°
2026-05-06 09:59 49.71922 7.45402 31752 ft 474 kts 301°
2026-05-06 10:00 49.75829 7.37186 31748 ft 472 kts 301°
2026-05-06 10:00 49.79704 7.29010 31747 ft 470 kts 301°
2026-05-06 10:01 49.83573 7.20810 31742 ft 469 kts 302°
2026-05-06 10:01 49.87391 7.12702 31743 ft 467 kts 302°
2026-05-06 10:02 49.91216 7.04553 31739 ft 467 kts 302°
2026-05-06 10:02 49.95036 6.96387 31760 ft 467 kts 302°
2026-05-06 10:03 49.98853 6.88207 31764 ft 467 kts 302°
2026-05-06 10:03 50.02655 6.80030 31753 ft 465 kts 302°
2026-05-06 10:04 50.06430 6.71891 31769 ft 464 kts 302°
2026-05-06 10:04 50.10203 6.63730 31766 ft 464 kts 302°
2026-05-06 10:05 50.13966 6.55563 31755 ft 463 kts 302°
2026-05-06 10:05 50.17777 6.47448 31757 ft 466 kts 307°
2026-05-06 10:06 50.22434 6.40445 31769 ft 470 kts 317°
2026-05-06 10:06 50.27456 6.33850 31771 ft 472 kts 319°
2026-05-06 10:07 50.32528 6.27325 31791 ft 472 kts 319°
2026-05-06 10:07 50.37582 6.20785 31790 ft 472 kts 319°
2026-05-06 10:08 50.42643 6.14186 31793 ft 472 kts 319°
2026-05-06 10:08 50.47682 6.07586 31808 ft 472 kts 319°
2026-05-06 10:09 50.52727 6.00959 31806 ft 473 kts 319°
2026-05-06 10:09 50.56917 5.95438 31817 ft 473 kts 319°
2026-05-06 10:10 50.61855 5.88572 31822 ft 472 kts 312°
2026-05-06 10:10 50.64484 5.83143 31824 ft 469 kts 299°
2026-05-06 10:10 50.65923 5.78556 31826 ft 467 kts 290°
2026-05-06 10:11 50.67621 5.70466 31828 ft 468 kts 285°
2026-05-06 10:11 50.69442 5.60598 31854 ft 469 kts 286°
2026-05-06 10:12 50.71392 5.50784 31855 ft 469 kts 286°
2026-05-06 10:12 50.73387 5.40964 31854 ft 470 kts 286°
2026-05-06 10:13 50.75369 5.31121 31852 ft 470 kts 287°
2026-05-06 10:13 50.77329 5.21275 31853 ft 469 kts 286°
2026-05-06 10:14 50.79274 5.11437 31851 ft 469 kts 287°
2026-05-06 10:14 50.81213 5.01596 31843 ft 468 kts 286°
2026-05-06 10:15 50.83100 4.91741 31850 ft 468 kts 286°
2026-05-06 10:15 50.84958 4.81881 31856 ft 467 kts 286°
2026-05-06 10:16 50.86810 4.72041 31856 ft 468 kts 285°
2026-05-06 10:16 50.88662 4.62150 31884 ft 468 kts 286°
2026-05-06 10:17 50.90899 4.52479 31884 ft 468 kts 298°
2026-05-06 10:17 50.94122 4.43547 31883 ft 467 kts 301°
2026-05-06 10:18 50.97507 4.34737 31882 ft 468 kts 301°